This is the latest recevied weather packets stored in our database for station/object YO6LRV-3. If no packets are shown the sender has not sent any weather packets the latest 10 day(s).
| Time | Temp. | Humidity | Pressure | Rain* | Wind** | Luminosity | Snow |
|---|---|---|---|---|---|---|---|
| 1788573453 | 18.89° C | 56% | 1016.8 hPa | - | - | - | - |
| 1788572553 | 18.89° C | 55% | 1016.9 hPa | - | - | - | - |
| 1788571653 | 19.44° C | 54% | 1016.9 hPa | - | - | - | - |
| 1788570755 | 19.44° C | 53% | 1017 hPa | - | - | - | - |
| 1788569855 | 19.44° C | 53% | 1017.1 hPa | - | - | - | - |
| 1788568055 | 18.89° C | 54% | 1017.1 hPa | - | - | - | - |
| 1788567155 | 19.44° C | 54% | 1017.3 hPa | - | - | - | - |
| 1788566255 | 19.44° C | 53% | 1017.2 hPa | - | - | - | - |
| 1788565355 | 19.44° C | 53% | 1017.3 hPa | - | - | - | - |
| 1788564454 | 20° C | 52% | 1017.5 hPa | - | - | - | - |
| 1788563554 | 20° C | 52% | 1017.6 hPa | - | - | - | - |
| 1788562654 | 20.56° C | 51% | 1017.7 hPa | - | - | - | - |
| 1788561754 | 20.56° C | 52% | 1017.8 hPa | - | - | - | - |
| 1788559954 | 21.11° C | 50% | 1018.1 hPa | - | - | - | - |
| 1788559054 | 21.11° C | 51% | 1018.2 hPa | - | - | - | - |
| 1788558154 | 21.67° C | 50% | 1018.2 hPa | - | - | - | - |
| 1788557253 | 21.67° C | 49% | 1018.1 hPa | - | - | - | - |
| 1788556353 | 21.67° C | 48% | 1018.1 hPa | - | - | - | - |
| 1788555453 | 21.67° C | 51% | 1018 hPa | - | - | - | - |
| 1788554553 | 21.67° C | 48% | 1018.1 hPa | - | - | - | - |
| 1788553653 | 21.67° C | 48% | 1018 hPa | - | - | - | - |
| 1788552753 | 22.22° C | 47% | 1018 hPa | - | - | - | - |
| 1788551853 | 22.22° C | 47% | 1018 hPa | - | - | - | - |
| 1788550952 | 22.22° C | 47% | 1017.9 hPa | - | - | - | - |
| 1788550052 | 22.78° C | 48% | 1017.9 hPa | - | - | - | - |
* Rain since midnight (hover to see other rain measurements)
** Current wind speed in m/s (hover to see current wind gust speed)